KE4EST Weather Reports


time (UTC)temp
C
wind
direction
speed
KPH
gust
KPH
rain 1hr
cm
rain 24hr
cm
rain mn
cm
humidity
%
barometer
mb
20260906104218 20 79 0.0 0.0 0.00 0.00 0.00 99 1014.8
20260906103715 20 79 0.0 0.0 0.00 0.00 0.00 99 1015.0
20260906103211 20 81 0.0 0.0 0.00 0.00 0.00 99 1015.2
20260906102706 20 82 0.0 0.0 0.00 0.00 0.00 99 1014.9
20260906102205 20 82 0.0 0.0 0.00 0.00 0.00 99 1014.9
20260906101700 20 81 0.0 0.0 0.00 0.00 0.00 99 1014.9
20260906101155 20 82 0.0 0.0 0.00 0.00 0.00 99 1014.8
20260906100650 20 82 0.0 0.0 0.00 0.00 0.00 99 1014.8
20260906100145 20 82 0.0 0.0 0.00 0.00 0.00 99 1014.9
20260906095640 20 82 0.0 0.0 0.00 0.00 0.00 99 1015.0
20260906095135 20 81 0.0 0.0 0.00 0.00 0.00 99 1014.8
20260906094634 20 81 0.0 0.0 0.00 0.00 0.00 99 1014.9
20260906094130 20 81 0.0 0.0 0.00 0.00 0.00 99 1015.1
20260906093626 20 81 0.0 0.0 0.00 0.00 0.00 99 1014.9
20260906093120 20 81 0.0 0.0 0.00 0.00 0.00 99 1014.8
20260906092615 20 88 0.0 0.0 0.00 0.00 0.00 99 1014.9
20260906092110 20 89 0.0 0.0 0.00 0.00 0.00 99 1014.8
20260906091606 20 88 0.0 0.0 0.00 0.00 0.00 99 1014.9
20260906091103 20 89 0.0 0.0 0.00 0.00 0.00 99 1015.0
20260906090602 20 90 0.0 0.0 0.00 0.00 0.00 99 1015.1
20260906090057 20 90 0.0 0.0 0.00 0.00 0.00 99 1015.0
20260906085556 20 90 0.0 0.0 0.00 0.00 0.00 99 1015.2
20260906085051 20 90 0.0 0.0 0.00 0.00 0.00 99 1015.1
20260906084545 20 78 0.0 0.0 0.00 0.00 0.00 99 1015.0
20260906084044 20 74 0.0 0.0 0.00 0.00 0.00 99 1014.9
20260906083539 20 82 0.0 0.0 0.00 0.00 0.00 99 1014.8
20260906083034 20 85 0.0 0.0 0.00 0.00 0.00 99 1014.8
20260906082529 20 88 0.0 0.0 0.00 0.00 0.00 99 1014.8
20260906082025 20 83 0.0 0.0 0.00 0.00 0.00 99 1014.7
20260906081520 20 79 0.0 0.0 0.00 0.00 0.00 99 1014.7
20260906081016 20 79 0.0 0.0 0.00 0.00 0.00 99 1014.6
20260906080512 20 86 0.0 0.0 0.00 0.00 0.00 99 1014.7
20260906080008 20 87 0.0 0.0 0.00 0.00 0.00 99 1014.7
20260906075502 20 89 0.0 0.0 0.00 0.00 0.00 99 1014.9
20260906074956 20 89 0.0 0.0 0.00 0.00 0.00 99 1014.8
20260906074451 20 78 0.0 0.0 0.00 0.00 0.00 99 1014.8
20260906073949 20 79 0.0 0.0 0.00 0.00 0.00 99 1014.7
20260906073445 20 86 0.0 0.0 0.00 0.00 0.00 99 1014.6
20260906072941 20 86 0.0 0.0 0.00 0.00 0.00 99 1014.9
20260906072436 20 88 0.0 0.0 0.00 0.00 0.00 99 1014.8
20260906071932 20 92 0.0 0.0 0.00 0.00 0.00 99 1014.5
20260906071428 20 92 0.0 0.0 0.00 0.00 0.00 99 1014.7
20260906070924 20 92 0.0 0.0 0.00 0.00 0.00 99 1014.7
20260906070419 20 92 0.0 0.0 0.00 0.00 0.00 99 1014.6
20260906065915 20 85 0.0 0.0 0.00 0.00 0.00 99 1014.8
20260906065409 20 85 0.0 0.0 0.00 0.00 0.00 99 1015.0
20260906064904 20 85 0.0 0.0 0.00 0.00 0.00 99 1015.1
20260906064400 20 85 0.0 0.0 0.00 0.00 0.00 99 1015.0
20260906063855 20 85 0.0 0.0 0.00 0.00 0.00 99 1015.1
20260906063350 20 85 0.0 0.0 0.00 0.00 0.00 99 1015.1
20260906062845 20 85 0.0 0.0 0.00 0.00 0.00 99 1015.0
20260906062344 20 85 0.0 0.0 0.00 0.00 0.00 99 1015.1
20260906061840 20 85 0.0 0.0 0.00 0.00 0.00 99 1015.2
20260906061336 20 85 0.0 0.0 0.00 0.00 0.00 99 1015.1
20260906060831 20 85 0.0 0.0 0.00 0.00 0.00 99 1014.7
20260906060329 20 87 0.0 0.0 0.00 0.00 0.00 99 1014.9
20260906055824 20 87 0.0 0.0 0.00 0.00 0.00 99 1014.9
20260906055319 20 87 0.0 0.0 0.00 0.00 0.00 99 1015.1
20260906054814 20 87 0.0 0.0 0.00 0.00 0.00 99 1015.1
20260906054309 20 85 0.0 0.0 0.00 0.00 0.00 99 1015.1
20260906053806 20 87 0.0 0.0 0.00 0.00 0.00 99 1015.4
20260906053301 20 87 0.0 0.0 0.00 0.00 0.00 99 1015.2
20260906052756 20 87 0.0 0.0 0.00 0.00 0.00 99 1015.4
20260906052252 20 86 0.0 0.0 0.00 0.00 0.00 99 1015.4
20260906051749 20 88 0.0 0.0 0.00 0.00 0.00 99 1015.4
20260906051248 20 89 0.0 0.0 0.00 0.00 0.00 99 1015.8
20260906050744 20 89 0.0 0.0 0.00 0.00 0.00 99 1015.5
20260906050239 20 89 0.0 0.0 0.00 0.00 0.00 99 1015.6
20260906045738 20 91 0.0 0.0 0.00 0.00 0.00 99 1015.6
20260906045233 20 91 0.0 0.0 0.00 0.00 0.00 99 1015.6
20260906044729 20 92 0.0 0.0 0.00 0.00 0.00 99 1015.6
20260906044224 20 83 0.0 0.0 0.00 0.00 0.00 99 1015.6
20260906043720 20 83 0.0 0.0 0.00 0.00 0.00 99 1015.7
20260906043216 20 83 0.0 0.0 0.00 0.00 0.00 99 1015.8
20260906042715 20 83 0.0 0.0 0.00 0.00 0.00 99 1015.8
20260906042214 20 79 0.0 0.0 0.00 0.00 0.00 99 1015.8
20260906041710 20 87 0.0 0.0 0.00 0.00 0.00 99 1016.0
20260906041205 20 87 0.0 0.0 0.00 0.00 0.00 99 1016.1
20260906040701 20 80 0.0 0.0 0.00 0.00 0.00 99 1016.1
20260906040156 20 81 0.0 0.0 0.00 0.00 0.00 99 1015.4
20260906035651 20 80 0.0 0.0 0.00 0.00 0.00 99 1015.7
20260906035147 20 77 0.0 0.0 0.00 0.00 0.00 99 1015.8
20260906034641 20 81 0.0 0.0 0.00 0.00 0.00 99 1015.7
20260906034136 20 73 0.0 0.0 0.00 0.00 0.00 99 1015.6
20260906033632 20 78 0.0 0.0 0.00 0.00 0.00 99 1015.5
20260906033126 20 84 0.0 0.0 0.00 0.00 0.00 99 1015.5
20260906032623 21 83 0.0 0.0 0.00 0.00 0.00 99 1015.7
20260906032123 21 84 0.0 0.0 0.00 0.00 0.00 99 1015.8
20260906031618 21 83 0.0 0.0 0.00 0.00 0.00 99 1015.7
20260906031114 21 84 0.0 0.0 0.00 0.00 0.00 99 1016.0
20260906030612 21 84 0.0 0.0 0.00 0.00 0.00 99 1016.0
20260906030108 21 91 0.0 0.0 0.00 0.00 0.00 99 1016.0
20260906025607 21 93 0.0 0.0 0.00 0.00 0.00 99 1016.0
20260906025106 21 91 0.0 0.0 0.00 0.00 0.00 99 1015.8
20260906024601 21 83 0.0 0.0 0.00 0.00 0.00 99 1015.7
20260906024055 21 85 0.0 0.0 0.00 0.00 0.00 99 1015.7
20260906023552 21 85 0.0 0.0 0.00 0.00 0.00 99 1015.8
20260906023051 21 85 0.0 0.0 0.00 0.00 0.00 99 1015.7
20260906022547 21 86 0.0 0.0 0.00 0.00 0.00 99 1015.5
20260906022042 21 85 0.0 0.0 0.00 0.00 0.00 99 1015.3
20260906021538 21 85 0.0 0.0 0.00 0.00 0.00 99 1015.3
20260906021036 21 85 0.0 0.0 0.00 0.00 0.00 99 1015.6
20260906020531 21 85 0.0 0.0 0.00 0.00 0.00 99 1015.3
20260906020031 21 85 0.0 0.0 0.00 0.00 0.00 99 1015.2
20260906015529 21 85 0.0 0.0 0.00 0.00 0.00 99 1015.2
20260906015024 21 85 0.0 0.0 0.00 0.00 0.00 99 1015.1
20260906014519 21 85 0.0 0.0 0.00 0.00 0.00 99 1014.8
20260906014015 21 85 0.0 0.0 0.00 0.00 0.00 99 1015.1
20260906013509 21 85 0.0 0.0 0.00 0.00 0.00 99 1015.2
20260906013000 21 86 0.0 0.0 0.00 0.00 0.00 99 1014.9
20260906012455 21 86 0.0 0.0 0.00 0.00 0.00 99 1014.7
20260906011954 21 84 0.0 0.0 0.00 0.00 0.00 99 1014.8
20260906011450 21 84 0.0 0.0 0.00 0.00 0.00 99 1014.9
20260906010944 21 83 0.0 0.0 0.00 0.00 0.00 99 1014.8
20260906010439 21 83 0.0 0.0 0.00 0.00 0.00 99 1014.7
20260906005936 22 83 0.0 0.0 0.00 0.00 0.00 99 1014.7
20260906005430 22 78 0.0 0.0 0.00 0.00 0.00 99 1014.9
20260906004928 22 76 0.0 0.0 0.00 0.00 0.00 99 1014.9
20260906004423 22 84 0.0 0.0 0.00 0.00 0.00 99 1014.7
20260906003919 22 84 0.0 0.0 0.00 0.00 0.00 99 1014.7
20260906003414 22 84 0.0 0.0 0.00 0.00 0.00 99 1014.5
20260906002909 22 84 0.0 0.0 0.00 0.00 0.00 99 1014.9
20260906002409 22 84 0.0 0.0 0.00 0.00 0.00 99 1014.9
20260906001904 22 84 0.0 0.0 0.00 0.00 0.00 98 1014.8
20260906001400 22 84 0.0 0.0 0.00 0.00 0.00 98 1014.6
20260906000859 22 84 0.0 0.0 0.00 0.00 0.00 98 1014.5
20260906000356 22 81 0.0 0.0 0.00 0.00 0.00 98 1014.7
20260905235849 23 81 0.0 0.0 0.00 0.00 0.00 97 1014.7
20260905235343 23 81 0.0 0.0 0.00 0.00 0.00 97 1014.8
20260905234839 23 80 0.0 0.0 0.00 0.00 0.00 97 1014.6
20260905234334 23 80 0.0 0.0 0.00 0.00 0.00 97 1014.4
20260905233829 23 81 0.0 0.0 0.00 0.00 0.00 96 1014.4
20260905233324 23 80 0.0 0.0 0.00 0.00 0.00 96 1014.5
20260905232823 23 80 0.0 0.0 0.00 0.00 0.00 95 1014.7
20260905232320 23 80 0.0 0.0 0.00 0.00 0.00 95 1014.7
20260905231815 23 80 0.0 0.0 0.00 0.00 0.00 95 1014.5
20260905231310 23 81 0.0 0.0 0.00 0.00 0.00 94 1014.5
20260905230806 23 80 0.0 0.0 0.00 0.00 0.00 94 1014.6
20260905230304 23 80 0.0 0.0 0.00 0.00 0.00 94 1014.5
20260905225804 23 80 0.0 0.0 0.00 0.00 0.00 93 1014.5
20260905225259 23 80 0.0 0.0 0.00 0.00 0.00 93 1014.4
20260905224758 23 76 0.0 0.0 0.00 0.00 0.00 93 1014.5
20260905224254 24 71 0.0 0.0 0.00 0.00 0.00 93 1014.4
20260905223749 23 78 0.0 0.0 0.00 0.00 0.00 93 1014.3
20260905223246 24 83 0.0 0.0 0.00 0.00 0.00 93 1014.5
20260905222741 24 90 0.0 0.0 0.00 0.00 0.00 91 1014.9
20260905222240 24 90 0.0 0.0 0.00 0.00 0.00 91 1014.9
20260905221736 24 90 0.0 0.0 0.00 0.00 0.00 91 1014.7
20260905221233 24 90 0.0 0.0 0.00 0.00 0.00 91 1014.6
20260905220729 24 90 0.0 0.0 0.00 0.00 0.00 91 1014.9
20260905220225 24 77 0.0 0.0 0.00 0.00 0.00 91 1014.8
20260905215724 25 77 0.0 0.0 0.00 0.00 0.00 89 1014.6
20260905215220 25 77 0.0 0.0 0.00 0.00 0.00 90 1014.5
20260905214716 25 77 0.0 0.0 0.00 0.00 0.00 89 1014.2
20260905214211 25 77 0.0 0.0 0.00 0.00 0.00 89 1014.8
20260905213706 25 77 0.0 0.0 0.00 0.00 0.00 88 1014.8
20260905213202 25 77 0.0 0.0 0.00 0.00 0.00 88 1014.8
20260905212657 25 80 0.0 0.0 0.00 0.00 0.00 90 1014.9
20260905212156 24 80 0.0 0.0 0.00 0.00 0.00 90 1015.2
20260905211651 24 83 0.0 0.0 0.00 0.00 0.00 91 1015.3
20260905211146 24 78 0.0 0.0 0.00 0.00 0.00 93 1015.1
20260905210643 23 76 0.0 0.0 0.00 0.00 0.00 91 1015.2
20260905210143 23 75 0.0 0.0 0.00 0.00 0.00 91 1014.9
20260905205641 23 75 0.0 0.0 0.00 0.00 0.00 91 1015.1
20260905205136 23 73 0.0 0.0 0.00 0.00 0.00 90 1015.1
20260905204630 23 75 1.6 1.6 0.00 0.00 0.00 89 1015.0
20260905204125 23 66 1.6 1.6 0.00 0.00 0.00 88 1015.0
20260905203620 23 71 0.0 0.0 0.00 0.00 0.00 88 1014.7
20260905203115 24 78 1.6 1.6 0.00 0.00 0.00 87 1014.9
20260905202610 24 72 1.6 1.6 0.00 0.00 0.00 85 1014.8
20260905202105 25 79 0.0 0.0 0.00 0.00 0.00 83 1014.9
20260905201601 25 88 0.0 0.0 0.00 0.00 0.00 80 1014.9
20260905201100 25 85 0.0 0.0 0.00 0.00 0.00 80 1015.2
20260905200555 26 84 0.0 0.0 0.00 0.00 0.00 78 1015.5
20260905200050 27 43 3.2 4.8 0.00 0.00 0.00 75 1015.8
20260905195544 27 68 1.6 1.6 0.00 0.00 0.00 76 1015.6
20260905195040 27 53 1.6 3.2 0.00 0.00 0.00 77 1015.7
20260905194539 27 77 0.0 0.0 0.00 0.00 0.00 74 1015.8
20260905194039 28 74 1.6 1.6 0.00 0.00 0.00 73 1015.6
20260905193534 30 82 1.6 1.6 0.00 0.00 0.00 69 1015.2
20260905193029 30 105 0.0 0.0 0.00 0.00 0.00 66 1015.1
20260905192524 30 81 0.0 0.0 0.00 0.00 0.00 67 1015.4
20260905192021 30 72 1.6 1.6 0.00 0.00 0.00 66 1015.4
20260905191519 29 84 0.0 0.0 0.00 0.00 0.00 68 1015.4
20260905191018 29 83 1.6 1.6 0.00 0.00 0.00 68 1015.2
20260905190516 28 85 0.0 0.0 0.00 0.00 0.00 68 1015.4
20260905190016 28 55 3.2 3.2 0.00 0.00 0.00 68 1015.7
20260905185510 27 83 0.0 1.6 0.00 0.00 0.00 71 1015.6
20260905185009 26 73 1.6 1.6 0.00 0.00 0.00 71 1015.7
20260905184505 27 80 1.6 1.6 0.00 0.00 0.00 71 1015.7
20260905184003 27 85 1.6 1.6 0.00 0.00 0.00 73 1015.8
20260905183502 27 78 1.6 1.6 0.00 0.00 0.00 67 1015.6
20260905182957 27 88 0.0 0.0 0.00 0.00 0.00 71 1015.6
20260905182457 28 84 0.0 0.0 0.00 0.00 0.00 70 1016.2
20260905181952 29 90 0.0 0.0 0.00 0.00 0.00 68 1016.0
20260905181447 32 86 0.0 0.0 0.00 0.00 0.00 69 1016.1
20260905180946 33 83 0.0 0.0 0.00 0.00 0.00 67 1015.7
20260905180441 33 93 0.0 0.0 0.00 0.00 0.00 62 1015.7
20260905175936 32 86 0.0 0.0 0.00 0.00 0.00 65 1015.7
20260905175436 32 124 1.6 1.6 0.00 0.00 0.00 67 1015.8
20260905174931 32 83 0.0 0.0 0.00 0.00 0.00 69 1015.8
20260905174427 32 101 0.0 0.0 0.00 0.00 0.00 67 1015.8
20260905173922 32 69 1.6 1.6 0.00 0.00 0.00 68 1015.8
20260905173419 32 81 1.6 1.6 0.00 0.00 0.00 66 1015.8
20260905172919 32 97 0.0 0.0 0.00 0.00 0.00 70 1016.1
20260905172416 32 95 0.0 0.0 0.00 0.00 0.00 71 1016.1
20260905171912 31 13 1.6 3.2 0.00 0.00 0.00 69 1015.8
20260905171404 31 86 1.6 1.6 0.00 0.00 0.00 71 1016.2
20260905170859 31 62 3.2 3.2 0.00 0.00 0.00 70 1016.4
20260905170355 31 349 4.8 4.8 0.00 0.00 0.00 69 1016.3
20260905165854 31 140 3.2 3.2 0.00 0.00 0.00 70 1016.5
20260905165350 31 81 0.0 0.0 0.00 0.00 0.00 70 1016.5
20260905164850 31 117 1.6 1.6 0.00 0.00 0.00 72 1016.4
20260905164344 31 86 0.0 0.0 0.00 0.00 0.00 72 1016.5
20260905163840 31 67 1.6 1.6 0.00 0.00 0.00 74 1016.5
20260905163331 30 96 0.0 0.0 0.00 0.00 0.00 75 1016.6
20260905162826 30 92 0.0 0.0 0.00 0.00 0.00 77 1016.6
20260905162320 30 92 0.0 0.0 0.00 0.00 0.00 76 1017.0
20260905161815 30 97 0.0 0.0 0.00 0.00 0.00 76 1016.8
20260905161315 30 95 0.0 0.0 0.00 0.00 0.00 77 1016.8
20260905160813 30 95 0.0 0.0 0.00 0.00 0.00 78 1017.0
20260905160313 29 97 0.0 0.0 0.00 0.00 0.00 79 1016.9
20260905155808 28 102 0.0 0.0 0.00 0.00 0.00 81 1017.0
20260905155307 28 92 0.0 0.0 0.00 0.00 0.00 79 1017.2
20260905154800 28 85 0.0 0.0 0.00 0.00 0.00 81 1017.1
20260905154257 27 90 0.0 0.0 0.00 0.00 0.00 81 1017.1
20260905153752 28 101 0.0 0.0 0.00 0.00 0.00 81 1017.4
20260905153248 28 99 0.0 0.0 0.00 0.00 0.00 82 1017.3
20260905152742 27 89 0.0 0.0 0.00 0.00 0.00 83 1017.3
20260905152236 27 91 0.0 0.0 0.00 0.00 0.00 82 1017.1
20260905151736 27 99 0.0 0.0 0.00 0.00 0.00 84 1017.2
20260905151233 27 92 0.0 0.0 0.00 0.00 0.00 85 1017.1
20260905150732 27 87 0.0 0.0 0.00 0.00 0.00 85 1017.2
20260905150232 26 92 0.0 0.0 0.00 0.00 0.00 86 1017.3
20260905145729 26 91 0.0 0.0 0.00 0.00 0.00 87 1017.4
20260905145225 26 79 0.0 0.0 0.00 0.00 0.00 88 1017.4
20260905144723 26 92 0.0 0.0 0.00 0.00 0.00 89 1017.6
20260905144218 26 94 0.0 0.0 0.00 0.00 0.00 90 1017.3
20260905143717 25 86 0.0 0.0 0.00 0.00 0.00 88 1017.5
20260905143212 25 90 0.0 0.0 0.00 0.00 0.00 91 1017.4
20260905142710 25 90 0.0 0.0 0.00 0.00 0.00 91 1017.6
20260905142205 25 90 0.0 0.0 0.00 0.00 0.00 93 1017.7
20260905141701 24 90 0.0 0.0 0.00 0.00 0.00 93 1017.6
20260905141156 23 92 0.0 0.0 0.00 0.00 0.00 94 1017.7
20260905140651 23 90 0.0 0.0 0.00 0.00 0.00 96 1017.6
20260905140145 23 94 0.0 0.0 0.00 0.00 0.00 98 1017.7
20260905135640 23 94 0.0 0.0 0.00 0.00 0.00 99 1018.0
20260905135136 22 94 0.0 0.0 0.00 0.00 0.00 99 1017.7
20260905134630 22 94 0.0 0.0 0.00 0.00 0.00 99 1018.1
20260905134129 22 94 0.0 0.0 0.00 0.00 0.00 99 1018.1
20260905133624 22 88 0.0 0.0 0.00 0.00 0.00 99 1017.8
20260905133118 22 88 0.0 0.0 0.00 0.00 0.00 99 1018.0
20260905132618 22 88 0.0 0.0 0.00 0.00 0.00 99 1018.0
20260905132113 22 86 0.0 0.0 0.00 0.00 0.00 99 1018.3
20260905131608 21 86 0.0 0.0 0.00 0.00 0.00 99 1018.2
20260905131103 21 86 0.0 0.0 0.00 0.00 0.00 99 1018.3
20260905130602 21 86 0.0 0.0 0.00 0.00 0.00 99 1018.2
20260905130057 21 86 0.0 0.0 0.00 0.00 0.00 99 1017.8
20260905125557 21 86 0.0 0.0 0.00 0.00 0.00 99 1018.1
20260905125053 21 86 0.0 0.0 0.00 0.00 0.00 99 1018.1
20260905124549 21 86 0.0 0.0 0.00 0.00 0.00 99 1018.3
20260905124045 21 86 0.0 0.0 0.00 0.00 0.00 99 1018.1
20260905123540 20 84 0.0 0.0 0.00 0.00 0.00 99 1018.0
20260905123037 20 84 0.0 0.0 0.00 0.00 0.00 99 1018.1
20260905122536 20 84 0.0 0.0 0.00 0.00 0.00 99 1018.0
20260905122031 20 84 0.0 0.0 0.00 0.00 0.00 99 1018.0
20260905121526 20 84 0.0 0.0 0.00 0.00 0.00 99 1017.7
20260905121021 20 84 0.0 0.0 0.00 0.00 0.00 99 1017.7
20260905120515 20 84 0.0 0.0 0.00 0.00 0.00 99 1018.1
20260905120011 20 84 0.0 0.0 0.00 0.00 0.00 99 1017.7
20260905115509 20 83 0.0 0.0 0.00 0.00 0.00 99 1017.7
20260905115004 20 83 0.0 0.0 0.00 0.00 0.00 99 1017.8
20260905114458 20 83 0.0 0.0 0.00 0.00 0.00 99 1017.6
20260905113956 20 84 0.0 0.0 0.00 0.00 0.00 99 1017.5
20260905113452 20 84 0.0 0.0 0.00 0.00 0.00 99 1017.7
20260905112948 20 84 0.0 0.0 0.00 0.00 0.00 99 1017.2
20260905112443 20 84 0.0 0.0 0.00 0.00 0.00 99 1017.0
20260905111938 20 84 0.0 0.0 0.00 0.00 0.00 99 1017.2
20260905111438 19 84 0.0 0.0 0.00 0.00 0.00 99 1017.0
20260905110932 20 84 0.0 0.0 0.00 0.00 0.00 99 1016.8
20260905110426 20 83 0.0 0.0 0.00 0.00 0.00 99 1017.1
20260905105926 20 82 0.0 0.0 0.00 0.00 0.00 99 1016.8
20260905105426 20 82 0.0 0.0 0.00 0.00 0.00 99 1016.9
20260905104920 20 81 0.0 0.0 0.00 0.00 0.00 99 1016.9
20260905104416 20 81 0.0 0.0 0.00 0.00 0.00 99 1016.8